Time,TemperatureF,DewpointF,PressureIn,WindDirection,WindDirectionDegrees,WindSpeedMPH,WindSpeedGustMPH,Humidity,HourlyPrecipIn,Conditions,Clouds,dailyrainin,SolarRadiationWatts/m^2,SoftwareType,DateUTC
2013-01-27 00:01:00,35.0,34.0,-100.00,WNW,301,0.0,7.0,98,0.00,,,0.09,0.000000,,2013-01-27 08:01:00,
2013-01-27 00:11:00,35.0,34.0,-100.00,WNW,301,0.0,7.0,98,0.00,,,0.09,0.000000,,2013-01-27 08:11:00,
2013-01-27 00:21:00,35.0,34.0,-100.00,WNW,301,0.0,7.0,98,0.00,,,0.09,0.000000,,2013-01-27 08:21:00,
2013-01-27 00:31:00,35.0,34.0,-100.00,WNW,301,0.0,7.0,98,0.00,,,0.09,0.000000,,2013-01-27 08:31:00,
2013-01-27 01:02:00,33.0,33.0,-100.00,ESE,105,1.0,4.0,99,0.00,,,0.06,0.000000,,2013-01-27 09:02:00,
2013-01-27 01:11:00,33.0,33.0,-100.00,ESE,105,1.0,4.0,99,0.00,,,0.06,0.000000,,2013-01-27 09:11:00,
2013-01-27 01:21:00,33.0,33.0,-100.00,ESE,105,1.0,4.0,99,0.00,,,0.06,0.000000,,2013-01-27 09:21:00,
2013-01-27 01:31:00,33.0,33.0,-100.00,ESE,105,1.0,4.0,99,0.00,,,0.06,0.000000,,2013-01-27 09:31:00,
2013-01-27 01:52:00,36.0,35.0,-100.00,West,264,0.0,7.0,97,0.00,,,0.04,0.000000,,2013-01-27 09:52:00,
2013-01-27 02:01:00,36.0,35.0,-100.00,West,264,0.0,7.0,97,0.00,,,0.04,0.000000,,2013-01-27 10:01:00,
2013-01-27 02:11:00,36.0,35.0,-100.00,West,264,0.0,7.0,97,0.00,,,0.04,0.000000,,2013-01-27 10:11:00,
2013-01-27 02:21:00,36.0,35.0,-100.00,West,264,0.0,7.0,97,0.00,,,0.04,0.000000,,2013-01-27 10:21:00,
2013-01-27 02:31:00,36.0,35.0,-100.00,West,264,0.0,7.0,97,0.00,,,0.04,0.000000,,2013-01-27 10:31:00,
2013-01-27 02:52:00,36.0,35.0,-100.00,South,187,3.0,8.0,97,0.00,,,0.01,0.000000,,2013-01-27 10:52:00,
2013-01-27 03:01:00,36.0,35.0,-100.00,South,187,3.0,8.0,97,0.00,,,0.01,0.000000,,2013-01-27 11:01:00,
2013-01-27 03:11:00,36.0,35.0,-100.00,South,187,3.0,8.0,97,0.00,,,0.01,0.000000,,2013-01-27 11:11:00,
2013-01-27 03:21:00,36.0,35.0,-100.00,South,187,3.0,8.0,97,0.00,,,0.01,0.000000,,2013-01-27 11:21:00,
2013-01-27 03:32:00,36.0,35.0,-100.00,South,187,3.0,8.0,97,0.00,,,0.01,0.000000,,2013-01-27 11:32:00,
2013-01-27 03:52:00,34.0,34.0,-100.00,East,99,0.0,10.0,98,0.00,,,0.01,0.000000,,2013-01-27 11:52:00,
2013-01-27 04:02:00,34.0,34.0,-100.00,East,99,0.0,10.0,98,0.00,,,0.01,0.000000,,2013-01-27 12:02:00,
2013-01-27 04:11:00,34.0,34.0,-100.00,East,99,0.0,10.0,98,0.00,,,0.01,0.000000,,2013-01-27 12:11:00,
2013-01-27 04:21:00,34.0,34.0,-100.00,East,99,0.0,10.0,98,0.00,,,0.01,0.000000,,2013-01-27 12:21:00,
2013-01-27 04:32:00,34.0,34.0,-100.00,East,99,0.0,10.0,98,0.00,,,0.01,0.000000,,2013-01-27 12:32:00,
2013-01-27 05:02:00,33.0,31.0,-100.00,SW,231,0.0,8.0,91,0.00,,,0.01,0.000000,,2013-01-27 13:02:00,
2013-01-27 05:11:00,33.0,31.0,-100.00,SW,231,0.0,8.0,91,0.00,,,0.01,0.000000,,2013-01-27 13:11:00,
2013-01-27 05:22:00,33.0,31.0,-100.00,SW,231,0.0,8.0,91,0.00,,,0.01,0.000000,,2013-01-27 13:22:00,
2013-01-27 05:31:00,33.0,31.0,-100.00,SW,231,0.0,8.0,91,0.00,,,0.01,0.000000,,2013-01-27 13:31:00,
2013-01-27 05:52:00,33.0,30.0,-100.00,South,169,1.0,12.0,90,0.00,,,0.00,0.000000,,2013-01-27 13:52:00,
2013-01-27 06:01:00,33.0,30.0,-100.00,South,169,1.0,12.0,90,0.00,,,0.00,0.000000,,2013-01-27 14:01:00,
2013-01-27 06:11:00,33.0,30.0,-100.00,South,169,1.0,12.0,90,0.00,,,0.00,0.000000,,2013-01-27 14:11:00,
2013-01-27 06:21:00,33.0,30.0,-100.00,South,169,1.0,12.0,90,0.00,,,0.00,0.000000,,2013-01-27 14:21:00,
2013-01-27 06:31:00,33.0,30.0,-100.00,South,169,1.0,12.0,90,0.00,,,0.00,0.000000,,2013-01-27 14:31:00,
2013-01-27 07:11:00,32.0,29.0,-100.00,SSW,193,3.0,12.0,88,0.00,,,0.00,0.000000,,2013-01-27 15:11:00,
2013-01-27 07:21:00,32.0,29.0,-100.00,SSW,193,3.0,12.0,88,0.00,,,0.00,0.000000,,2013-01-27 15:21:00,
2013-01-27 07:32:00,32.0,29.0,-100.00,SSW,193,3.0,12.0,88,0.00,,,0.00,0.000000,,2013-01-27 15:32:00,
2013-01-27 07:53:00,33.0,30.0,-100.00,SSW,197,5.0,11.0,90,0.00,,,0.00,10.000000,,2013-01-27 15:53:00,
2013-01-27 08:02:00,33.0,30.0,-100.00,SSW,197,5.0,11.0,90,0.00,,,0.00,10.000000,,2013-01-27 16:02:00,
2013-01-27 08:11:00,33.0,30.0,-100.00,SSW,197,5.0,11.0,90,0.00,,,0.00,10.000000,,2013-01-27 16:11:00,
2013-01-27 08:21:00,33.0,30.0,-100.00,SSW,197,5.0,11.0,90,0.00,,,0.00,10.000000,,2013-01-27 16:21:00,
2013-01-27 08:32:00,33.0,30.0,-100.00,SSW,197,5.0,11.0,90,0.00,,,0.00,10.000000,,2013-01-27 16:32:00,
2013-01-27 09:01:00,34.0,29.0,-100.00,South,188,8.0,17.0,82,0.00,,,0.00,37.000000,,2013-01-27 17:01:00,
2013-01-27 09:12:00,34.0,29.0,-100.00,South,188,8.0,17.0,82,0.00,,,0.00,37.000000,,2013-01-27 17:12:00,
2013-01-27 09:21:00,34.0,29.0,-100.00,South,188,8.0,17.0,82,0.00,,,0.00,37.000000,,2013-01-27 17:21:00,
2013-01-27 09:32:00,34.0,29.0,-100.00,South,188,8.0,17.0,82,0.00,,,0.00,37.000000,,2013-01-27 17:32:00,
2013-01-27 09:52:00,36.0,29.0,-100.00,SSW,206,6.0,17.0,75,0.00,,,0.00,328.000000,,2013-01-27 17:52:00,
2013-01-27 10:02:00,36.0,29.0,-100.00,SSW,206,6.0,17.0,75,0.00,,,0.00,328.000000,,2013-01-27 18:02:00,
2013-01-27 10:11:00,36.0,29.0,-100.00,SSW,206,6.0,17.0,75,0.00,,,0.00,328.000000,,2013-01-27 18:11:00,
2013-01-27 10:22:00,36.0,29.0,-100.00,SSW,206,6.0,17.0,75,0.00,,,0.00,328.000000,,2013-01-27 18:22:00,
2013-01-27 10:31:00,36.0,29.0,-100.00,SSW,206,6.0,17.0,75,0.00,,,0.00,328.000000,,2013-01-27 18:31:00,
2013-01-27 11:02:00,35.0,28.0,-100.00,SSW,195,6.0,17.0,75,0.00,,,-99.99,449.000000,,2013-01-27 19:02:00,
2013-01-27 11:11:00,35.0,28.0,-100.00,SSW,195,6.0,17.0,75,0.00,,,-99.99,449.000000,,2013-01-27 19:11:00,
2013-01-27 11:21:00,35.0,28.0,-100.00,SSW,195,6.0,17.0,75,0.00,,,-99.99,449.000000,,2013-01-27 19:21:00,
2013-01-27 11:32:00,35.0,28.0,-100.00,SSW,195,6.0,17.0,75,0.00,,,-99.99,449.000000,,2013-01-27 19:32:00,
2013-01-27 11:52:00,37.0,27.0,-100.00,North,351,5.0,18.0,67,0.00,,,0.00,639.000000,,2013-01-27 19:52:00,
2013-01-27 12:02:00,37.0,27.0,-100.00,North,351,5.0,18.0,67,0.00,,,0.00,639.000000,,2013-01-27 20:02:00,
2013-01-27 12:11:00,37.0,27.0,-100.00,North,351,5.0,18.0,67,0.00,,,0.00,639.000000,,2013-01-27 20:11:00,
2013-01-27 12:22:00,37.0,27.0,-100.00,North,351,5.0,18.0,67,0.00,,,0.00,639.000000,,2013-01-27 20:22:00,
2013-01-27 12:32:00,37.0,27.0,-100.00,North,351,5.0,18.0,67,0.00,,,0.00,639.000000,,2013-01-27 20:32:00,
2013-01-27 12:52:00,38.0,28.0,-100.00,WSW,252,5.0,14.0,67,0.00,,,0.00,690.000000,,2013-01-27 20:52:00,
2013-01-27 13:02:00,38.0,28.0,-100.00,WSW,252,5.0,14.0,67,0.00,,,0.00,690.000000,,2013-01-27 21:02:00,
2013-01-27 13:12:00,38.0,28.0,-100.00,WSW,252,5.0,14.0,67,0.00,,,0.00,690.000000,,2013-01-27 21:12:00,
2013-01-27 13:22:00,38.0,28.0,-100.00,WSW,252,5.0,14.0,67,0.00,,,0.00,690.000000,,2013-01-27 21:22:00,
2013-01-27 13:32:00,38.0,28.0,-100.00,WSW,252,5.0,14.0,67,0.00,,,0.00,690.000000,,2013-01-27 21:32:00,
2013-01-27 14:01:00,34.0,28.0,-100.00,SSW,198,8.0,17.0,78,0.00,,,0.00,508.000000,,2013-01-27 22:01:00,
2013-01-27 14:11:00,34.0,28.0,-100.00,SSW,198,8.0,17.0,78,0.00,,,0.00,508.000000,,2013-01-27 22:11:00,
2013-01-27 14:21:00,34.0,28.0,-100.00,SSW,198,8.0,17.0,78,0.00,,,0.00,508.000000,,2013-01-27 22:21:00,
2013-01-27 14:31:00,34.0,28.0,-100.00,SSW,198,8.0,17.0,78,0.00,,,0.00,508.000000,,2013-01-27 22:31:00,
2013-01-27 14:52:00,34.0,26.0,-100.00,South,188,7.0,17.0,72,0.00,,,0.00,433.000000,,2013-01-27 22:52:00,
2013-01-27 15:02:00,34.0,26.0,-100.00,South,188,7.0,17.0,72,0.00,,,0.00,433.000000,,2013-01-27 23:02:00,
2013-01-27 15:11:00,34.0,26.0,-100.00,South,188,7.0,17.0,72,0.00,,,0.00,433.000000,,2013-01-27 23:11:00,
2013-01-27 15:21:00,34.0,26.0,-100.00,South,188,7.0,17.0,72,0.00,,,0.00,433.000000,,2013-01-27 23:21:00,
2013-01-27 15:31:00,34.0,26.0,-100.00,South,188,7.0,17.0,72,0.00,,,0.00,433.000000,,2013-01-27 23:31:00,
2013-01-27 15:53:00,32.0,26.0,-100.00,ESE,113,6.0,20.0,79,0.00,,,0.00,236.000000,,2013-01-27 23:53:00,
2013-01-27 16:01:00,32.0,26.0,-100.00,ESE,113,6.0,20.0,79,0.00,,,0.00,236.000000,,2013-01-28 00:01:00,
2013-01-27 16:11:00,32.0,26.0,-100.00,ESE,113,6.0,20.0,79,0.00,,,0.00,236.000000,,2013-01-28 00:11:00,
2013-01-27 16:21:00,32.0,26.0,-100.00,ESE,113,6.0,20.0,79,0.00,,,0.00,236.000000,,2013-01-28 00:21:00,
2013-01-27 16:32:00,32.0,26.0,-100.00,ESE,113,6.0,20.0,79,0.00,,,0.00,236.000000,,2013-01-28 00:32:00,
2013-01-27 16:52:00,31.0,26.0,-100.00,SSW,206,6.0,16.0,81,0.00,,,0.00,104.000000,,2013-01-28 00:52:00,
2013-01-27 17:01:00,31.0,26.0,-100.00,SSW,206,6.0,16.0,81,0.00,,,0.00,104.000000,,2013-01-28 01:01:00,
2013-01-27 17:11:00,31.0,26.0,-100.00,SSW,206,6.0,16.0,81,0.00,,,0.00,104.000000,,2013-01-28 01:11:00,
2013-01-27 17:21:00,31.0,26.0,-100.00,SSW,206,6.0,16.0,81,0.00,,,0.00,104.000000,,2013-01-28 01:21:00,
2013-01-27 17:32:00,31.0,26.0,-100.00,SSW,206,6.0,16.0,81,0.00,,,0.00,104.000000,,2013-01-28 01:32:00,
2013-01-27 18:02:00,29.0,25.0,-100.00,SSW,203,5.0,17.0,85,0.00,,,0.00,10.000000,,2013-01-28 02:02:00,
2013-01-27 18:11:00,29.0,25.0,-100.00,SSW,203,5.0,17.0,85,0.00,,,0.00,10.000000,,2013-01-28 02:11:00,
2013-01-27 18:21:00,29.0,25.0,-100.00,SSW,203,5.0,17.0,85,0.00,,,0.00,10.000000,,2013-01-28 02:21:00,
2013-01-27 18:32:00,29.0,25.0,-100.00,SSW,203,5.0,17.0,85,0.00,,,0.00,10.000000,,2013-01-28 02:32:00,
2013-01-27 19:02:00,28.0,24.0,-100.00,SSW,193,5.0,18.0,86,0.00,,,0.00,0.000000,,2013-01-28 03:02:00,
2013-01-27 19:11:00,28.0,24.0,-100.00,SSW,193,5.0,18.0,86,0.00,,,0.00,0.000000,,2013-01-28 03:11:00,
2013-01-27 19:21:00,28.0,24.0,-100.00,SSW,193,5.0,18.0,86,0.00,,,0.00,0.000000,,2013-01-28 03:21:00,
2013-01-27 19:32:00,28.0,24.0,-100.00,SSW,193,5.0,18.0,86,0.00,,,0.00,0.000000,,2013-01-28 03:32:00,
2013-01-27 20:01:00,28.0,24.0,-100.00,South,190,5.0,16.0,86,0.00,,,0.00,0.000000,,2013-01-28 04:01:00,
2013-01-27 20:11:00,28.0,24.0,-100.00,South,190,5.0,16.0,86,0.00,,,0.00,0.000000,,2013-01-28 04:11:00,
2013-01-27 20:21:00,28.0,24.0,-100.00,South,190,5.0,16.0,86,0.00,,,0.00,0.000000,,2013-01-28 04:21:00,
2013-01-27 20:31:00,28.0,24.0,-100.00,South,190,5.0,16.0,86,0.00,,,0.00,0.000000,,2013-01-28 04:31:00,
2013-01-27 20:52:00,27.0,24.0,-100.00,South,190,3.0,18.0,89,0.00,,,0.00,0.000000,,2013-01-28 04:52:00,
2013-01-27 21:03:00,27.0,24.0,-100.00,South,190,3.0,18.0,89,0.00,,,0.00,0.000000,,2013-01-28 05:03:00,
2013-01-27 21:11:00,27.0,24.0,-100.00,South,190,3.0,18.0,89,0.00,,,0.00,0.000000,,2013-01-28 05:11:00,
2013-01-27 21:21:00,27.0,24.0,-100.00,South,190,3.0,18.0,89,0.00,,,0.00,0.000000,,2013-01-28 05:21:00,
2013-01-27 21:31:00,27.0,24.0,-100.00,South,190,3.0,18.0,89,0.00,,,0.00,0.000000,,2013-01-28 05:31:00,
2013-01-27 22:02:00,26.0,26.0,-100.00,NW,318,2.0,13.0,98,0.00,,,0.00,0.000000,,2013-01-28 06:02:00,
2013-01-27 22:11:00,26.0,26.0,-100.00,NW,318,2.0,13.0,98,0.00,,,0.00,0.000000,,2013-01-28 06:11:00,
2013-01-27 22:21:00,26.0,26.0,-100.00,NW,318,2.0,13.0,98,0.00,,,0.00,0.000000,,2013-01-28 06:21:00,
2013-01-27 22:31:00,26.0,26.0,-100.00,NW,318,2.0,13.0,98,0.00,,,0.00,0.000000,,2013-01-28 06:31:00,
2013-01-27 23:02:00,22.0,21.0,-100.00,NNW,345,0.0,14.0,95,0.00,,,0.00,0.000000,,2013-01-28 07:02:00,
2013-01-27 23:11:00,22.0,21.0,-100.00,NNW,345,0.0,14.0,95,0.00,,,0.00,0.000000,,2013-01-28 07:11:00,
2013-01-27 23:21:00,22.0,21.0,-100.00,NNW,345,0.0,14.0,95,0.00,,,0.00,0.000000,,2013-01-28 07:21:00,
2013-01-27 23:31:00,22.0,21.0,-100.00,NNW,345,0.0,14.0,95,0.00,,,0.00,0.000000,,2013-01-28 07:31:00,
2013-01-27 23:52:00,21.0,20.0,-100.00,ESE,113,0.0,11.0,97,0.00,,,0.00,0.000000,,2013-01-28 07:52:00,